Powrót do katalogu

TIANFU DONGPO 09

AktywnyŁącznośćSSO
NORAD 54685·PAYLOAD·🇨🇳 China
Ta nazwa satelity nie została jeszcze potwierdzona przez oficjalne źródła.

Wystrzelony Dec 9, 2022 z Yellow Sea Launch Area

Loading…

Następne Przeloty (najbliższe 24 godziny)

TLE

ŚwieżeSource: Space-Track

Epoka: Sep 14, 2026, 15:40 UTC

1 54685U 22167D   26257.65323020  .00009102  00000-0  24534-3 0  9992
2 54685  97.6966  72.8250 0002880 137.8066 222.3400 15.38060126209192

Śledź TIANFU DONGPO 09 w czasie rzeczywistym z AllMySat

Download on the App Store